Wind_Speed
3 3 2 6 5 6 4 5 9 3 9 6 9 5 10 10 8 9 8 11 11 14 18 22 28 30 29 28 32 33 32 31 26 25 22 19 18 16 13 10 6 5 6 11
5 5 6 4 5 6 6 5 6 2 7 4 7 8 5 15 17 17 14 10 13 10 6 13 22 25 31 35 34 34 33 32 29 27 24 21 20 18 13 7 6 6 5 7
5 4 4 2 2 4 3 3 4 3 4 2 5 4 7 8 6 12 13 11 10 13 9 7 16 27 29 29 35 36 35 32 29 29 26 19 16 12 9 7 7 4 6 6
5 4 2 1 4 4 4 0 3 4 3 2 1 4 4 4 13 16 15 13 12 11 7 7 14 19 26 36 34 35 34 32 30 29 28 25 19 14 11 7 9 6 6 5
6 2 2 2 4 5 8 5 4 2 3 3 4 3 5 7 9 16 18 18 16 13 12 12 17 26 34 28 36 38 34 33 32 31 28 27 21 16 12 8 7 9 7 6
7 2 4 6 4 7 1 3 8 5 4 3 4 4 4 5 10 15 15 18 21 16 13 13 24 29 24 24 26 31 34 36 34 31 29 26 25 22 17 12 10 10 11 11
5 4 4 3 3 2 4 6 3 4 5 4 4 2 8 7 8 14 23 21 21 19 16 12 13 18 20 26 29 31 34 37 37 34 32 30 27 25 23 17 15 16 14 15
3 5 5 2 5 4 1 7 5 2 2 4 2 4 5 4 8 8 17 18 17 17 15 16 16 23 25 28 30 32 35 36 37 36 35 33 29 26 25 22 19 18 13 12
3 5 4 3 2 5 2 2 4 7 3 2 3 7 9 2 6 3 8 13 18 17 15 17 16 23 25 26 31 37 35 36 36 37 37 35 32 30 30 27 21 19 14 10
5 2 1 6 3 4 2 6 4 4 1 2 4 5 5 5 3 3 8 11 13 14 14 12 12 22 24 29 33 32 33 38 40 36 37 37 35 33 30 27 26 22 19 16
5 3 7 3 6 3 3 4 7 5 4 5 1 6 6 6 3 3 6 8 12 12 13 14 13 21 24 26 26 30 32 33 34 36 36 36 36 35 33 30 28 23 22 20
1 5 1 2 6 3 4 4 4 5 3 1 3 6 2 8 1 5 1 7 7 11 12 11 11 19 23 25 27 31 32 34 40 41 37 38 37 35 34 34 34 30 26 22
3 2 3 6 6 4 6 3 4 5 3 3 5 6 6 11 9 9 8 5 6 8 8 8 8 10 21 24 27 30 32 36 37 37 40 38 37 36 37 36 35 32 31 30
4 3 5 6 5 3 3 4 1 5 3 2 5 8 9 17 14 14 10 6 7 7 9 8 8 9 18 24 28 29 34 36 35 36 37 38 39 40 39 38 36 34 33 33
4 3 2 1 1 4 3 2 4 2 5 5 3 5 6 12 11 8 10 12 7 2 3 3 4 4 9 19 23 29 32 33 34 34 35 40 44 41 37 36 35 34 35 36
5 0 2 1 5 1 3 1 5 2 1 3 5 3 6 6 5 12 13 13 10 13 10 8 2 4 7 12 22 23 27 31 33 33 37 39 35 38 38 37 36 35 35 36
1 4 2 2 3 4 3 3 2 2 0 3 0 1 5 7 11 8 5 10 10 8 9 8 6 6 8 4 16 25 28 27 31 34 35 30 32 34 34 34 34 35 37 37
5 4 2 3 2 2 4 3 3 4 3 1 3 4 3 3 3 6 10 11 14 13 9 7 6 11 15 17 13 5 16 22 24 30 33 32 31 32 31 31 33 34 35 37
2 4 3 4 3 4 3 1 2 1 3 5 4 2 2 3 2 5 11 16 12 19 8 10 11 17 22 24 20 16 5 5 12 20 25 28 28 28 29 30 33 34 31 24
5 5 4 2 3 7 3 1 2 2 5 5 3 3 2 3 3 3 2 11 21 17 21 19 18 20 26 24 18 21 19 15 10 5 10 15 20 26 29 30 30 27 25 22
4 4 3 1 1 4 3 3 2 3 5 1 3 5 6 4 3 3 5 5 12 24 20 17 19 19 20 20 18 17 11 15 11 9 5 3 9 16 18 19 19 19 22 21
2 3 1 2 2 4 3 1 4 3 2 1 3 4 5 6 8 2 6 5 5 5 16 17 10 12 12 13 14 12 11 10 10 10 9 5 2 6 9 12 11 14 15 19
1 4 3 6 5 3 3 4 3 3 3 2 3 4 4 6 7 6 5 8 9 15 13 31 8 2 8 8 10 12 5 5 7 8 10 6 3 4 5 7 13 14 12 14
1 3 1 3 3 5 5 4 5 2 4 4 3 5 5 6 7 10 7 6 5 7 5 5 11 6 4 2 2 5 6 4 6 8 10 7 7 6 5 6 8 11 12 10
4 4 3 4 7 7 6 6 5 2 3 4 4 4 6 5 11 8 10 9 10 11 9 8 9 11 15 4 2 2 3 6 5 11 10 9 11 9 9 8 7 6 6 8
5 6 4 5 4 2 5 5 2 3 4 6 3 6 6 5 10 7 8 14 16 17 8 12 13 17 25 9 5 1 1 3 4 11 9 8 8 8 8 7 6 4 4 6
Wind_Direction
195 168 183 231 214 237 255 242 260 187 182 152 199 195 173 175 178 190 193 181 189 200 215 207 204 206 205 210 212 212 213 216 214 213 219 219 225 227 238 263 262 267 255 238
14 278 202 222 227 233 243 266 281 317 155 128 165 227 202 186 197 193 193 203 201 201 179 196 195 189 200 208 213 211 214 215 215 212 213 218 225 221 234 241 238 239 238 231
165 238 313 207 308 324 293 216 294 262 88 69 157 262 180 194 181 193 200 203 219 206 196 184 184 188 197 201 209 212 211 213 213 214 211 217 208 213 226 230 229 226 237 223
253 277 238 6 321 130 328 226 274 146 116 213 326 271 254 179 189 195 199 197 211 217 196 184 185 187 196 210 211 214 210 210 210 207 213 213 207 209 223 226 216 231 204 196
254 225 280 308 226 177 244 53 100 101 51 58 354 46 270 132 204 204 204 203 205 206 200 188 187 197 203 200 209 213 210 210 210 211 214 214 214 219 219 234 233 209 213 210
238 282 256 215 234 195 306 110 41 45 66 26 267 128 281 189 213 213 209 205 204 203 200 196 195 201 205 197 202 210 211 211 213 212 212 217 219 219 219 216 199 215 218 208
317 250 272 201 298 28 89 58 343 5 22 207 348 25 241 232 229 204 203 201 202 200 199 187 186 193 188 192 198 206 212 214 213 213 216 219 225 226 225 224 228 228 224 218
161 340 192 161 212 210 204 149 152 212 171 267 351 241 262 225 284 221 202 202 195 191 190 189 189 191 189 190 193 199 208 211 216 215 218 222 227 232 229 232 236 235 231 231
148 282 298 194 238 127 161 140 166 104 9 38 265 290 303 315 348 121 145 168 193 190 188 192 185 190 189 188 193 203 207 211 218 221 220 223 227 230 233 237 241 241 247 243
204 345 305 294 65 49 165 150 57 13 143 257 297 295 243 316 53 72 151 176 190 195 189 185 187 188 189 194 200 203 208 211 217 220 223 224 227 231 236 238 240 240 242 242
140 92 291 25 20 311 5 26 51 115 107 162 259 275 224 234 118 88 205 198 179 190 190 187 190 189 186 193 195 203 208 210 217 221 226 227 231 232 236 238 239 241 244 242
273 127 199 118 317 305 68 94 109 109 258 109 145 279 250 268 123 342 172 199 204 188 192 196 188 172 179 186 193 201 206 211 222 226 226 230 233 235 237 240 243 241 240 241
179 12 61 356 347 354 56 19 100 106 80 191 135 259 354 14 12 344 310 255 229 198 172 164 161 178 183 185 192 200 205 217 220 224 228 232 233 235 238 242 245 245 240 240
88 105 148 183 199 172 64 3 54 114 102 204 226 298 335 347 344 339 320 320 268 215 174 176 168 187 190 191 194 198 210 219 219 224 227 229 234 238 240 242 243 243 241 238
69 77 28 349 175 115 134 77 359 111 161 171 215 291 335 331 323 343 3 19 34 21 103 196 189 205 199 194 201 208 211 216 220 223 224 232 237 238 239 241 241 242 241 240
1 74 61 343 297 306 119 171 105 15 279 235 289 279 343 323 358 32 27 24 15 64 51 44 4 214 220 211 217 217 220 221 221 220 226 232 233 237 239 241 241 240 240 240
62 130 90 202 1 354 349 251 127 123 27 275 30 324 326 355 30 350 67 40 20 22 53 48 55 56 59 269 247 235 231 226 223 229 235 232 233 236 236 237 238 238 238 236
157 110 80 182 80 215 260 351 107 131 204 252 293 318 220 255 281 335 350 50 17 330 54 50 57 48 41 48 38 282 243 235 229 233 237 238 235 235 234 233 234 236 235 233
133 120 103 152 176 280 295 224 19 82 266 185 235 321 302 276 10 357 7 10 13 282 350 14 42 58 53 39 51 63 43 259 245 245 243 241 235 231 230 228 232 233 227 216
70 73 114 129 150 197 253 52 65 164 302 165 196 255 274 236 193 208 179 164 220 26 348 359 18 45 48 38 41 60 64 54 33 321 271 261 247 235 232 236 229 226 217 210
0 8 103 90 158 291 245 268 197 136 243 226 210 223 266 257 128 269 296 268 7 36 335 342 49 43 38 40 38 41 49 55 50 49 64 202 221 229 231 233 228 213 208 198
154 118 188 82 93 264 192 159 182 228 329 318 306 262 268 275 302 165 271 338 314 151 299 266 27 43 51 59 59 45 31 18 44 62 69 74 173 216 218 219 202 194 169 157
315 178 190 176 220 248 272 248 270 173 231 318 322 330 304 296 298 297 205 224 238 257 256 270 276 242 57 62 70 102 60 354 59 64 84 83 82 122 163 176 159 163 172 174
254 156 191 22 281 251 262 254 246 235 232 265 278 295 289 288 297 297 282 261 222 252 314 299 248 295 351 11 36 102 126 118 77 94 100 110 112 113 121 139 144 156 157 157
203 137 178 267 283 289 274 251 271 246 217 271 294 249 279 299 303 278 297 296 290 282 275 284 307 336 311 331 324 267 132 97 134 110 112 129 124 131 131 128 132 154 185 205
182 189 165 226 249 218 271 329 274 185 197 217 315 302 306 311 293 292 292 288 288 293 295 280 281 270 270 260 239 244 88 161 172 124 135 136 137 140 143 147 142 172 204 221
Height
763 779 790 781 776 774 778 783 783 762 754 766 775 777 772 771 774 779 782 786 787 785 782 786 791 795 800 804 808 810 814 818 822 825 828 830 831 832 834 835 836 837 837 839
773 785 771 766 770 775 779 783 779 759 754 764 776 777 770 767 765 767 774 779 781 782 783 783 787 792 795 797 802 806 811 815 819 822 826 829 829 831 833 834 835 836 836 836
783 771 761 764 767 772 775 778 770 769 764 762 773 779 773 767 764 765 768 770 775 776 781 783 785 787 791 795 797 801 806 811 816 820 824 827 827 829 831 832 833 834 834 834
775 761 760 765 770 772 780 756 760 770 777 792 768 810 776 771 769 766 766 769 772 773 775 778 781 786 787 788 794 798 804 809 814 818 821 823 825 828 829 831 832 833 833 833
777 763 763 769 762 760 771 753 760 772 783 786 787 803 783 773 780 766 761 761 766 768 770 773 776 778 779 786 789 793 800 806 811 815 818 821 824 826 827 829 830 831 832 831
769 754 755 758 748 751 746 759 779 790 799 817 797 801 790 783 763 758 754 753 754 759 764 767 769 772 778 783 788 792 796 801 808 812 816 819 821 823 824 827 828 829 829 828
772 763 751 745 755 750 760 787 821 813 826 818 802 799 779 750 744 738 739 742 744 750 758 763 767 770 775 779 782 788 792 797 803 809 812 814 816 819 821 824 824 825 825 826
797 794 758 744 752 756 761 781 820 817 831 818 796 801 764 734 729 727 724 731 737 745 749 754 758 763 768 773 778 783 788 794 799 804 807 810 813 816 819 820 821 823 824 826
799 785 750 745 741 749 768 785 778 819 826 821 806 780 745 730 731 726 731 732 735 738 743 746 751 757 763 769 772 776 782 789 794 798 803 806 810 812 814 817 820 822 824 826
771 785 757 749 741 748 755 766 793 812 813 811 807 797 783 740 733 735 735 735 733 733 738 743 746 752 758 763 767 773 778 783 787 793 797 801 804 808 812 814 816 818 821 821
770 777 774 756 769 775 772 780 799 807 819 828 826 805 754 742 733 732 733 731 730 732 734 736 741 747 752 758 765 769 774 779 785 789 792 796 799 803 807 810 812 814 816 817
762 788 796 777 767 764 765 779 793 811 806 828 827 803 739 740 735 734 730 729 728 726 729 733 738 742 748 754 760 764 769 774 777 781 787 790 794 798 802 804 806 809 811 812
759 794 810 797 783 769 777 777 790 806 815 822 823 800 742 749 751 743 740 730 726 726 729 733 737 741 743 747 754 759 765 768 772 777 780 784 789 792 794 797 800 803 806 807
760 794 794 810 794 784 782 784 786 793 813 815 813 794 763 762 759 747 739 733 729 726 726 728 733 736 739 742 748 754 758 762 767 771 774 778 781 783 786 790 794 797 798 800
769 789 781 781 774 776 780 784 786 789 795 801 790 796 778 774 767 757 747 734 733 732 732 733 733 736 738 741 744 748 752 757 760 765 769 770 773 777 780 783 786 790 792 793
779 791 786 789 782 778 783 779 785 789 791 791 789 787 780 769 761 754 752 749 746 735 737 736 737 738 739 741 743 745 748 751 754 759 760 763 768 770 774 777 779 782 785 786
783 795 801 803 794 791 799 782 784 789 791 792 788 783 779 774 764 764 753 751 750 746 741 741 740 740 739 739 740 740 742 747 750 753 755 760 763 765 768 771 775 776 777 780
789 795 806 808 801 819 789 778 776 784 784 785 782 781 776 771 766 761 760 751 758 760 742 740 738 737 738 738 735 734 738 742 744 745 748 752 756 760 763 766 768 770 772 772
783 794 810 811 818 803 785 780 783 785 783 780 780 776 774 768 767 771 768 762 764 779 756 749 742 736 737 738 737 736 739 742 744 747 747 748 751 754 757 759 760 762 766 769
788 791 797 817 809 819 793 781 777 780 799 776 777 775 773 771 786 787 780 783 776 755 766 760 751 740 737 739 740 737 740 744 743 743 745 747 748 750 751 753 755 758 761 765
803 805 809 813 807 799 782 778 778 799 797 775 773 773 773 774 774 774 770 772 757 744 764 770 755 748 743 740 739 741 745 744 745 746 746 746 748 749 752 754 755 756 758 762
803 808 811 816 809 808 776 778 786 783 774 772 771 769 770 770 767 769 770 763 771 766 760 766 758 752 749 744 744 745 746 746 744 744 746 748 748 748 749 751 756 757 753 748
806 802 805 803 801 782 777 775 771 774 776 773 771 769 768 769 767 764 766 769 768 763 756 751 750 754 751 751 747 743 747 751 745 746 745 748 750 749 750 752 754 758 760 762
793 796 799 794 782 779 775 771 770 769 770 768 769 768 767 766 763 760 758 757 757 753 751 748 752 748 746 749 748 745 746 749 747 749 748 752 754 753 754 755 755 758 762 765
795 794 797 797 783 778 771 770 768 767 767 766 765 765 762 760 757 756 753 749 746 746 745 744 747 743 744 744 746 748 746 745 753 750 751 755 754 756 758 758 758 762 765 769
789 787 794 793 779 777 774 769 766 765 764 763 765 761 757 757 755 752 750 747 743 738 742 743 740 741 744 745 747 746 748 749 753 749 753 756 757 758 759 759 759 761 765 768